Lapse_Rate
7.4 7.2 7.1 7.0 6.8 6.6 6.1 6.0 6.1 6.5 6.3 6.4 6.4 6.6 6.6 6.6 6.2 5.7 5.5 5.5 5.5 4.8 4.8 4.7 4.8 4.5 4.6 4.4 4.4 4.3 4.3 4.8 5.1 5.0 5.2 5.2 5.4 5.5 5.4 5.3 5.3 5.3 5.3 5.3 5.2 5.2 5.3 5.3 5.2
7.3 7.2 6.9 6.9 6.7 6.4 5.6 5.4 5.8 5.8 5.8 5.8 6.1 6.2 6.4 6.4 6.3 6.0 5.7 5.1 4.7 4.7 4.5 4.9 4.3 4.7 4.7 4.8 4.3 4.3 4.3 4.3 4.5 4.7 5.1 5.0 5.1 5.3 5.4 5.5 5.4 5.2 5.2 5.3 5.4 5.4 5.2 5.2 5.3
7.3 7.1 6.8 7.0 6.6 6.1 5.5 5.4 5.8 5.6 5.7 5.9 5.8 5.9 5.8 5.7 5.5 5.5 5.3 5.0 4.8 4.6 4.2 4.1 4.0 4.2 4.4 4.4 5.0 4.8 4.2 4.2 4.5 4.6 4.5 4.8 4.9 5.0 5.1 5.1 5.1 5.2 5.2 5.2 5.4 5.3 5.5 5.3 5.2
7.1 6.9 6.9 7.0 6.6 5.8 5.5 5.4 5.3 5.4 5.5 5.5 5.6 5.5 5.4 5.4 5.3 5.2 5.3 5.0 4.5 4.1 3.9 4.0 4.0 4.4 4.3 4.8 4.6 4.6 4.2 4.3 4.6 4.6 4.7 5.0 5.0 5.0 5.0 5.0 4.9 4.9 5.1 5.1 5.2 5.2 5.3 5.4 5.3
6.7 6.7 6.7 6.5 6.3 5.8 5.6 5.7 5.5 5.4 5.5 5.9 5.9 5.8 5.5 5.4 5.4 5.3 4.7 4.5 4.2 4.0 4.1 4.2 4.4 4.4 4.2 4.2 4.3 4.4 4.6 4.5 4.4 4.4 4.6 4.9 4.8 4.7 4.8 5.2 5.3 4.9 4.7 4.9 5.1 5.2 5.2 5.1 5.2
6.6 6.6 6.6 6.5 6.1 5.9 5.9 5.9 6.0 5.9 6.2 6.1 5.8 5.5 5.3 5.1 4.7 4.3 4.3 4.5 4.3 4.3 4.4 4.6 4.4 4.3 4.3 4.3 4.4 4.3 4.2 4.3 4.4 4.5 4.4 4.6 4.6 4.8 4.8 4.9 4.9 5.1 5.1 5.0 5.0 5.0 5.1 5.0 5.1
6.5 6.5 6.4 6.3 6.2 6.2 5.9 6.0 6.0 6.0 6.1 6.2 6.1 5.4 4.9 4.4 3.8 3.6 3.5 3.7 3.8 3.9 3.9 3.9 4.2 4.4 4.5 4.4 4.4 4.4 4.4 4.4 4.4 4.3 4.5 4.7 4.8 4.8 4.9 4.9 4.8 5.0 5.2 5.0 5.1 4.9 5.0 5.2 5.0
6.6 6.5 6.2 6.0 6.1 6.1 6.1 5.8 5.8 6.1 5.9 5.7 5.2 4.7 4.3 4.0 3.7 3.6 3.5 3.5 3.5 3.6 3.7 3.8 3.7 3.6 3.5 3.6 3.6 3.7 3.9 4.0 3.9 4.0 4.0 4.1 4.3 4.6 4.9 5.0 4.9 4.6 4.6 5.0 4.9 4.9 5.0 5.0 4.7
6.6 6.7 6.7 6.6 6.1 5.9 5.8 5.8 6.0 5.8 5.6 5.2 4.7 4.3 3.9 3.7 3.6 3.7 4.0 4.1 4.2 4.3 4.1 3.8 3.6 3.5 3.7 3.8 3.8 3.7 3.9 4.1 4.3 4.4 4.3 4.1 4.2 4.2 4.5 4.5 4.9 5.5 5.2 4.8 4.6 4.6 4.8 5.1 5.2
6.7 6.6 6.5 6.4 6.3 6.3 6.0 5.9 5.6 5.4 5.1 4.5 4.0 3.8 3.6 3.6 4.0 4.3 4.5 4.4 4.3 4.1 3.9 4.2 4.2 4.2 4.1 4.0 4.1 4.2 4.2 4.3 4.5 4.8 5.3 5.3 4.8 4.4 4.4 4.5 4.4 4.7 4.8 5.4 5.2 4.7 4.3 4.5 5.0
6.8 6.8 6.7 6.7 6.5 6.1 5.9 5.7 5.7 5.3 5.1 4.9 4.4 4.2 3.8 4.0 4.2 4.1 3.9 3.9 3.9 3.7 3.9 4.0 4.0 4.3 4.7 5.1 5.6 5.6 5.5 5.6 5.7 5.4 5.2 5.4 5.5 5.5 5.8 5.2 4.9 4.7 4.7 4.6 4.9 5.3 4.9 4.8 4.5
6.8 6.7 6.6 6.3 6.1 5.8 5.6 5.3 5.2 5.0 4.7 4.0 4.0 3.5 3.4 3.6 3.6 3.7 3.6 3.7 3.7 3.9 4.2 4.7 5.4 5.7 5.5 5.4 5.4 5.5 5.4 5.4 5.5 5.8 5.8 5.5 5.3 5.3 5.7 5.5 5.4 5.6 5.2 4.9 4.6 4.7 5.0 5.3 5.1
6.7 6.5 6.3 6.0 5.7 5.4 5.3 5.4 5.4 5.0 4.0 3.9 3.2 3.1 3.2 3.2 3.4 3.7 3.9 3.8 4.2 4.6 4.9 5.3 5.3 4.9 4.9 5.0 5.0 5.0 4.9 4.8 4.9 5.0 5.1 5.2 5.1 5.2 5.4 5.5 5.4 5.3 5.5 5.9 5.3 5.1 4.7 4.7 5.0
6.2 6.0 5.8 5.7 5.2 5.2 5.4 5.2 4.7 3.9 3.5 3.1 3.1 3.2 3.1 3.2 3.4 3.3 3.4 4.0 4.6 5.5 5.6 5.2 5.1 4.8 4.6 4.7 4.8 4.8 4.7 4.7 4.9 5.0 4.9 4.8 5.0 5.1 5.0 5.4 5.5 5.5 5.2 5.2 5.4 5.5 5.3 4.9 5.0
5.6 5.4 5.2 5.0 4.9 4.9 4.7 4.7 4.4 3.5 3.2 2.9 2.9 2.7 3.0 3.2 3.2 3.4 4.6 5.3 5.7 5.5 5.3 5.4 5.3 5.1 5.0 4.8 4.8 4.8 4.8 4.9 5.0 5.0 5.0 4.9 4.9 4.7 4.6 4.8 5.2 5.5 5.4 5.2 5.1 5.1 5.3 5.4 5.1
5.3 5.0 4.7 4.8 4.8 4.6 4.8 4.3 3.5 3.2 3.2 2.9 2.6 2.6 3.0 3.3 3.8 5.0 5.8 6.0 5.8 5.5 5.7 5.7 5.5 5.2 5.0 4.9 4.7 4.9 5.1 5.2 5.2 5.0 5.0 4.9 5.0 4.9 4.8 4.8 4.8 5.1 5.2 5.3 5.2 5.0 4.8 5.2 5.2
5.1 4.9 4.8 4.9 5.1 4.6 4.3 4.1 3.3 3.1 2.6 2.3 2.5 2.8 3.2 3.7 5.1 5.9 6.1 5.9 5.7 5.6 5.8 5.7 5.3 4.7 4.9 4.9 4.9 4.7 4.8 4.9 5.2 5.2 5.2 5.1 5.2 5.1 5.0 5.0 4.9 4.8 5.0 4.9 5.2 5.4 5.0 5.0 5.1
4.9 4.7 4.5 4.7 4.8 4.4 4.1 3.8 3.4 2.8 2.4 2.4 2.7 2.9 3.3 4.2 5.3 5.8 5.7 5.7 5.7 5.9 5.8 5.6 5.2 5.2 5.2 5.3 5.2 5.2 5.2 5.4 5.4 5.4 5.3 5.3 5.3 5.2 5.2 5.2 5.1 5.0 4.8 4.8 5.1 5.4 5.6 5.2 5.0
5.3 5.1 4.7 5.0 4.5 4.1 3.9 3.6 3.3 2.8 2.5 2.6 2.8 3.2 3.7 4.7 5.6 5.6 5.5 5.6 5.8 6.0 5.8 5.7 5.5 5.4 5.4 5.5 5.7 5.9 5.8 5.6 5.5 5.4 5.2 5.1 5.1 5.2 5.3 5.4 5.4 5.0 4.7 5.0 5.0 5.3 5.6 5.5 5.3
5.2 5.1 4.9 4.6 4.3 4.3 3.7 3.2 2.6 2.2 2.2 2.5 3.0 3.5 4.0 5.1 5.9 5.9 5.8 5.6 5.6 5.8 5.7 6.0 5.6 5.5 5.5 5.8 5.7 5.5 5.6 5.4 5.3 5.4 5.2 5.3 5.3 5.4 5.4 5.3 5.4 5.2 4.7 4.9 5.4 5.4 5.4 5.6 5.6
5.3 4.9 4.6 4.3 4.5 4.4 3.9 3.0 2.6 2.5 2.5 3.2 4.0 4.2 5.3 5.8 5.5 5.8 5.8 5.7 5.7 5.8 6.0 6.0 5.7 5.8 5.6 5.5 5.6 5.6 5.4 5.3 5.3 5.4 5.3 5.2 5.4 5.6 5.6 5.5 5.1 5.0 4.6 4.9 5.2 5.5 5.5 5.8 6.0
5.3 4.8 5.1 5.1 4.9 4.5 4.0 3.6 2.5 2.5 3.1 3.7 3.9 4.4 5.3 5.7 5.8 5.4 5.6 5.6 5.7 5.9 5.9 6.0 5.8 5.8 5.7 5.5 5.4 5.3 5.3 5.4 5.2 5.1 5.3 5.4 5.3 5.6 5.5 5.1 4.9 4.9 4.5 4.9 5.4 5.5 5.7 5.7 6.0
5.0 5.2 5.2 5.3 4.8 4.5 3.9 3.4 1.9 2.8 3.2 3.2 3.7 4.4 5.3 5.9 5.4 5.5 5.4 5.4 5.6 5.9 5.9 6.0 5.9 5.7 5.7 5.4 5.0 5.3 5.5 5.4 5.4 5.3 5.5 5.5 5.7 5.5 5.4 5.2 5.2 4.8 4.3 4.9 5.5 5.8 6.0 6.0 5.9
5.3 5.3 5.1 5.0 4.7 4.2 4.0 3.9 2.1 2.4 2.3 3.0 4.0 4.8 5.6 5.8 5.6 5.4 5.4 5.6 6.0 6.0 6.1 6.2 6.1 6.0 5.9 5.8 5.5 5.7 5.8 6.0 5.9 5.8 5.8 5.8 5.6 5.6 5.6 5.6 5.4 4.6 4.6 4.9 5.4 6.1 6.3 6.0 5.9
5.7 5.7 5.1 4.8 3.9 4.0 4.0 3.8 2.4 2.5 3.2 3.3 4.1 5.5 5.8 5.7 5.5 5.7 5.9 6.1 6.2 6.4 6.5 6.4 6.3 6.3 6.1 6.0 5.9 6.1 6.4 6.2 5.8 5.5 5.6 5.6 5.8 5.9 5.9 5.7 5.0 4.8 5.0 4.9 5.1 6.1 6.6 6.1 6.0
5.0 4.9 4.5 4.4 3.2 3.3 3.8 3.6 3.2 3.4 3.2 3.7 5.1 5.8 5.8 5.7 5.3 5.2 5.5 5.9 6.0 6.3 6.3 6.3 6.5 6.4 6.1 5.9 5.9 6.4 6.3 6.0 5.6 5.0 5.0 5.3 5.6 5.9 5.8 5.7 5.5 5.3 5.2 5.1 5.1 6.0 6.3 6.3 6.2
4.7 4.5 4.1 3.4 3.4 2.3 3.2 2.8 2.8 2.9 3.8 3.5 4.6 5.6 5.7 5.3 5.4 5.5 5.8 5.9 6.1 6.3 6.3 6.5 6.5 6.6 6.2 6.0 6.1 5.8 5.6 5.1 5.0 4.8 4.7 5.1 5.7 6.0 5.8 5.7 5.8 5.8 5.6 5.4 5.3 5.6 6.2 6.4 6.5
4.6 4.3 3.9 3.9 1.4 2.4 2.9 2.6 3.0 2.9 3.0 3.5 4.6 5.3 5.2 5.2 5.5 5.7 6.0 6.2 6.2 6.3 6.3 6.3 6.2 6.5 6.4 6.2 6.0 5.7 5.2 4.6 4.7 4.8 4.8 5.3 5.9 5.9 5.9 5.9 6.0 5.9 5.7 5.8 5.9 5.8 6.2 6.4 6.6
4.3 4.0 4.0 3.5 3.3 1.7 0.5 2.5 2.9 2.7 3.0 3.5 4.4 4.6 5.0 5.2 5.4 5.7 6.1 6.1 6.3 6.2 6.2 6.3 6.2 6.4 6.3 6.1 5.9 5.8 5.2 4.6 4.7 5.0 5.3 5.7 5.8 5.9 5.9 6.0 6.0 6.1 6.0 5.9 5.8 6.0 6.4 6.7 6.7
4.3 4.0 3.7 3.6 3.2 2.7 2.5 3.0 3.1 3.0 2.8 3.7 4.5 4.7 4.5 4.8 5.3 5.6 6.0 6.3 6.4 6.3 6.3 6.2 6.3 6.4 6.2 5.9 5.9 5.9 5.7 5.5 5.4 5.6 5.7 5.7 5.8 5.9 6.0 6.1 6.1 6.2 6.3 6.3 6.1 6.1 6.3 6.8 6.9
Wind_Speed
6 6 3 4 5 6 3 6 3 5 4 5 10 9 11 10 4 3 5 8 11 14 18 22 22 24 25 25 25 25 23 23 24 24 24 25 25 23 22 22 24 22 16 13 12 11 10 9 8
3 1 4 2 5 4 1 3 7 9 5 9 7 5 6 3 3 0 4 5 11 14 17 19 22 24 24 25 27 27 25 24 24 24 23 23 23 23 22 21 21 21 22 19 16 13 12 12 11
1 4 4 4 4 3 2 5 6 5 10 1 4 6 3 3 0 2 4 9 13 13 15 19 23 25 26 26 27 27 26 25 27 26 24 22 22 22 23 20 20 19 19 19 20 18 14 12 13
2 4 5 5 6 4 3 6 7 3 7 8 4 7 4 1 2 2 10 14 10 15 15 19 22 23 25 26 27 26 25 25 25 25 25 27 26 23 21 21 20 18 18 18 17 16 16 17 15
4 4 5 5 4 3 4 4 10 5 5 8 1 3 4 7 8 9 7 11 7 11 14 17 21 24 25 25 26 26 26 25 25 24 25 24 23 24 26 27 21 20 18 19 17 16 15 12 14
4 4 5 3 4 4 2 5 3 7 7 3 6 4 4 6 9 6 7 7 9 8 15 17 18 23 26 26 26 25 25 25 25 25 25 24 24 23 24 25 24 23 20 20 17 17 16 15 11
5 4 4 5 7 3 3 3 5 6 8 9 2 4 2 7 7 7 7 10 13 15 16 19 19 19 19 19 24 27 26 26 25 26 25 23 24 24 26 25 24 22 24 19 21 16 16 16 15
5 5 4 4 5 3 2 4 5 5 4 1 3 4 2 5 8 7 6 7 9 14 17 19 21 24 22 22 20 26 26 24 25 26 24 23 23 22 23 24 21 22 22 25 21 21 16 16 14
3 5 3 4 5 6 7 5 2 3 8 6 4 3 2 7 6 8 7 7 6 8 9 17 16 21 24 22 21 26 25 25 25 22 19 21 18 17 20 18 21 24 24 24 24 21 19 15 12
5 4 2 4 4 5 5 6 5 5 6 6 4 3 7 8 8 9 8 9 9 10 11 12 17 18 20 20 23 24 24 21 20 19 19 20 18 17 18 18 21 24 21 21 21 21 23 16 11
4 4 4 8 13 9 6 5 3 8 6 2 3 5 7 6 8 8 9 9 9 8 5 9 14 18 17 18 18 15 17 18 18 18 18 17 15 17 14 13 14 16 18 14 14 14 13 12 8
7 9 6 7 6 6 4 4 7 7 4 4 6 3 6 10 9 9 9 12 10 11 10 13 18 18 16 21 13 17 14 14 13 18 21 13 9 8 8 8 10 11 13 10 11 8 12 11 9
7 4 7 10 12 8 12 8 8 4 5 6 9 11 9 8 9 8 9 13 14 14 13 14 17 17 16 14 15 15 12 13 16 15 17 17 10 6 7 7 9 9 13 8 6 6 4 5 7
5 15 13 11 12 6 10 3 4 3 3 12 11 9 9 10 12 9 11 13 12 13 13 13 11 14 20 15 16 14 16 16 17 15 16 18 15 10 7 5 4 6 11 12 7 4 5 5 4
10 7 8 3 3 6 11 8 3 4 8 10 10 9 10 10 10 11 12 12 12 12 10 11 16 22 18 13 19 18 18 19 14 15 17 16 18 17 11 7 5 5 12 10 7 5 4 4 5
5 4 3 5 5 4 3 2 3 4 11 9 9 9 9 9 10 11 11 10 13 12 13 15 15 16 16 17 17 16 17 16 14 14 13 14 16 16 11 7 7 9 8 5 4 4 4 4 4
5 1 2 3 2 4 3 3 5 7 9 7 8 9 9 9 10 12 12 11 15 11 13 16 16 15 15 17 16 17 17 14 15 14 15 16 16 17 11 9 9 13 5 4 5 5 4 3 3
3 0 2 3 2 7 9 6 5 4 6 4 7 9 10 15 16 14 13 14 12 14 13 14 13 16 16 12 12 10 10 11 16 14 15 18 16 17 12 8 9 10 8 5 4 6 4 4 4
2 3 2 3 4 6 5 7 5 3 4 10 14 13 13 15 12 10 15 13 16 15 15 14 16 16 12 10 11 11 11 10 10 11 19 20 18 17 12 9 9 9 8 9 7 5 7 5 4
5 3 3 3 3 6 4 4 2 5 5 5 8 12 14 13 14 16 17 14 17 17 15 15 15 16 13 10 11 10 10 10 10 11 13 18 18 18 12 12 10 9 7 11 8 9 5 4 5
3 4 3 5 5 7 6 1 3 4 3 8 11 8 12 15 17 19 19 16 17 17 19 18 17 18 14 15 11 10 10 9 9 10 9 9 16 17 14 14 12 11 9 9 10 8 9 7 5
4 4 3 7 5 3 2 4 4 7 8 13 11 15 15 16 16 17 18 20 19 20 18 17 17 19 15 17 14 17 12 12 11 11 10 10 14 12 14 14 13 12 9 10 8 8 9 6 6
7 8 1 4 5 4 3 2 2 5 11 17 14 15 16 15 17 18 18 20 18 19 18 17 17 18 17 17 17 14 15 11 11 12 14 13 11 13 13 14 13 11 9 10 11 9 8 7 4
11 2 5 5 3 2 2 4 2 5 11 15 14 15 16 17 19 17 17 18 17 17 18 19 20 18 18 18 19 18 19 17 14 12 11 10 10 9 11 13 12 11 10 10 9 11 10 8 7
10 6 3 3 3 5 3 3 4 5 8 8 15 16 16 18 18 20 21 20 20 19 21 20 21 19 19 20 19 19 19 19 17 16 12 14 9 9 11 14 13 8 9 10 9 9 10 10 7
5 4 4 4 3 5 3 2 4 2 7 7 9 11 14 17 17 18 19 19 20 21 22 20 19 22 21 18 19 17 18 12 12 13 12 10 9 9 13 11 10 4 6 7 6 7 6 7 8
5 6 1 1 1 2 2 2 1 12 16 13 15 15 17 18 18 20 19 18 20 17 20 20 18 19 19 19 17 16 16 17 15 16 14 11 13 8 9 8 6 5 6 6 5 5 7 8 6
7 1 2 3 3 5 3 1 4 13 16 15 17 18 19 19 19 19 18 22 20 17 18 17 17 19 19 17 16 15 16 17 15 14 16 16 14 13 8 7 6 5 5 5 5 5 7 7 7
5 4 6 4 2 3 3 3 5 6 11 14 15 15 18 20 20 18 19 17 18 17 17 17 17 18 20 17 16 17 16 17 13 15 15 15 15 14 10 7 6 5 4 4 3 3 6 5 5
2 3 3 4 5 2 3 5 3 5 7 11 14 15 17 17 18 16 18 17 17 17 17 18 17 18 17 16 15 15 16 16 16 15 16 17 16 13 16 10 6 6 5 4 4 4 4 4 6
Wind_Direction
325 345 81 43 62 63 36 353 323 7 70 21 50 69 93 41 36 111 263 282 292 319 323 338 6 5 4 7 6 8 5 4 7 7 7 6 5 2 3 358 2 2 343 316 297 289 278 269 248
334 41 43 65 76 64 71 308 19 11 86 158 64 49 51 79 59 260 320 298 331 321 341 340 359 358 1 359 356 354 353 359 1 356 355 356 358 358 356 358 358 360 0 358 344 315 295 283 266
58 47 72 70 64 98 123 10 322 67 38 341 96 50 59 25 51 304 274 322 334 332 349 348 0 358 359 357 351 349 345 354 353 348 348 346 345 346 349 349 350 353 353 352 351 347 338 323 297
92 18 39 71 82 25 61 338 312 283 25 34 77 59 53 28 7 281 354 352 2 356 0 6 3 359 354 349 347 344 350 348 344 344 347 345 342 337 336 333 339 341 341 344 340 339 342 339 320
38 56 62 79 59 85 33 9 34 48 90 42 139 71 65 360 354 10 11 27 17 353 6 6 358 354 349 346 344 342 336 341 339 340 338 335 338 340 342 337 324 325 324 330 330 328 327 327 327
43 92 70 104 103 135 80 7 17 46 45 8 69 85 51 295 41 333 6 355 342 337 351 355 351 350 348 345 342 339 338 337 337 336 335 331 331 334 333 331 330 320 318 315 317 320 315 313 313
102 73 111 128 166 157 125 357 25 41 30 20 68 80 104 1 332 327 336 342 351 353 349 342 338 337 333 330 334 331 332 330 330 331 331 327 329 331 329 325 325 324 313 309 311 304 306 307 303
99 91 113 173 178 119 54 99 63 47 8 172 46 49 344 299 314 319 339 345 347 343 343 336 331 332 329 324 318 321 324 320 317 321 320 320 325 323 325 328 323 321 318 314 304 299 294 305 315
83 72 141 158 139 142 174 120 4 39 72 39 43 86 293 301 342 7 354 340 335 335 320 322 324 327 329 329 322 320 314 313 312 312 303 309 302 303 309 309 316 315 313 314 318 307 300 294 314
62 75 107 353 89 107 75 87 100 76 44 36 43 357 360 4 8 5 348 332 332 325 322 326 329 324 324 326 314 313 319 315 308 303 295 295 290 289 296 303 309 313 312 311 312 316 304 297 298
30 99 96 60 95 100 88 69 83 122 40 22 63 357 351 348 354 353 337 325 309 294 297 312 314 315 312 319 312 307 304 305 313 308 298 285 285 284 288 282 290 295 301 305 303 301 303 291 277
93 34 94 173 111 88 79 93 66 68 132 95 49 17 15 360 344 329 325 318 310 312 305 323 318 316 308 316 306 309 307 307 298 295 304 293 287 268 266 267 272 277 277 284 291 292 294 280 266
80 110 51 89 85 81 99 86 97 65 69 44 39 25 1 343 330 320 326 331 325 326 313 314 309 308 308 313 301 299 288 293 290 291 291 296 286 278 258 252 254 263 274 269 279 286 290 281 260
82 99 104 94 108 115 109 99 99 26 11 39 30 360 349 347 338 329 326 318 311 312 309 317 315 334 327 319 323 317 306 297 291 285 281 286 294 295 292 268 248 256 263 273 267 273 287 280 261
120 86 88 141 138 137 108 36 64 34 59 36 8 351 344 331 324 315 304 305 313 314 309 338 338 332 333 337 330 322 313 313 300 295 291 285 290 290 283 287 268 240 255 261 273 284 278 275 270
73 91 113 212 186 192 42 124 47 41 61 22 351 334 320 310 308 297 306 316 334 335 339 339 337 336 334 326 322 313 311 307 302 300 291 299 296 295 293 288 280 272 240 245 249 255 270 246 255
22 304 137 135 212 127 58 151 83 51 54 9 330 316 319 323 328 333 330 335 339 341 340 336 335 331 328 322 321 319 315 311 305 295 292 292 292 296 294 293 289 278 258 239 240 250 217 253 262
256 165 122 176 156 54 93 116 103 66 62 341 313 334 331 343 337 326 334 338 341 342 336 334 334 338 333 329 319 314 310 306 306 304 297 291 287 279 278 282 290 289 274 251 227 224 231 216 237
202 127 97 84 137 82 118 122 123 188 26 7 358 345 336 325 308 323 344 339 340 339 338 338 341 338 337 332 330 325 319 313 306 302 298 294 289 282 275 273 273 274 269 260 236 216 229 245 215
137 117 63 50 83 86 159 135 178 22 45 349 325 336 327 321 333 345 345 344 345 340 342 333 343 336 335 328 324 314 311 306 298 292 290 295 293 289 282 271 268 259 274 279 250 238 231 230 196
347 142 158 214 106 50 118 6 359 336 5 342 350 315 329 338 339 342 343 345 345 345 346 343 344 339 332 329 321 314 305 301 305 304 291 287 286 282 278 273 268 259 253 258 261 239 228 234 219
315 101 285 177 142 193 204 280 357 345 334 347 335 348 339 336 340 340 342 345 346 348 347 343 342 334 334 329 326 324 315 316 321 311 302 293 284 277 274 269 264 261 252 249 253 241 239 215 212
253 325 206 125 144 103 214 8 277 347 344 342 339 336 339 335 343 341 343 344 343 347 349 347 343 330 336 332 331 327 322 317 324 324 319 318 306 297 276 270 266 257 258 244 254 246 229 224 199
303 48 51 60 88 341 233 166 355 1 327 330 338 340 333 337 342 343 343 345 341 352 348 347 348 342 339 336 335 331 330 326 326 321 320 318 314 303 294 285 270 254 254 247 247 244 238 234 227
12 40 347 352 5 240 120 52 219 307 314 317 326 331 337 345 342 344 347 347 347 351 351 349 350 342 339 335 334 332 329 328 331 333 327 322 313 311 302 296 272 246 243 252 242 258 220 230 219
11 64 115 268 298 295 319 216 188 246 304 309 319 329 335 345 344 345 346 346 348 352 349 346 342 348 344 337 337 336 334 332 339 335 333 324 315 306 305 331 340 228 246 259 280 232 244 221 228
335 38 259 89 323 350 275 5 122 357 346 341 334 343 343 346 344 344 351 349 349 353 350 347 342 348 348 340 342 337 335 337 346 341 338 338 335 319 328 329 331 316 286 278 246 285 225 229 221
87 23 21 16 19 307 307 337 269 335 332 339 346 346 343 344 345 343 353 352 352 347 346 342 345 342 336 342 343 340 338 341 352 343 344 343 339 334 336 337 329 321 316 284 270 253 276 228 227
349 20 46 109 98 176 312 285 219 287 318 334 343 341 341 342 343 342 349 348 352 347 348 344 345 340 349 347 343 343 341 343 350 351 349 347 343 343 333 330 327 322 315 306 288 298 231 270 236
95 126 112 112 276 80 141 279 203 248 315 340 338 339 339 340 340 341 345 347 348 351 349 344 342 346 346 345 344 345 345 347 349 355 353 352 350 354 0 341 320 312 312 306 302 285 264 269 223